EUTELSAT 172B

Last updated on Wed Sep 09 2026 00:03:01 GMT+0000 (Coordinated Universal Time)

1 42741U 17029B 26250.90894568 -.00000026 00000+0 00000+0 0 9998 2 42741 0.0221 140.9737 0000185 188.3575 156.8893 1.00271821 34589
UTC large
Height (km)
Speed (km/s)
/
Latitude / Longitude
Inclination (degrees)
Orbital Period (minutes)
Azimuth
Elevation
Range (km)
Doppler Factor

Next 0 passes for location: London (51.5072 / 0.1276)

No passes found over London.
EUTELSAT 172B